Location: Camp at the Woods
(43.2055°N, 93.0905°W)
Time: 06:46:48
(UTC+00:00)

CZ-4B R/B - Pass Details

Date: 05 December 2023
Orbit: 484 x 614 km, 97.9° (Epoch: 29 February)

Event Time Altitude Azimuth Distance (km) Brightness Sun altitude
Rises 21:59:25 0° 95° (E) 2,550 6.8 4.9°
Reaches altitude 10° 23:33:09 10° 158° (SSE) 1,661 6.3 -10.0°
Maximum altitude 23:36:40 68° 76° (ENE) 529 3.5 -10.6°
Drops below altitude 10° 23:40:17 10° 352° (N) 1,695 6.2 -11.2°
Sets 23:42:23 0° 350° (N) 2,596 7.2 -11.6°
